Location: Unspecified
(0.0000°N, 0.0000°E)
Time: 18:31:15
(UTC+00:00)

S-56A Canister/Altair - All Passes

Search period start: 20 April 2014 00:00
Search period end: 30 April 2014 00:00
Orbit: 632 x 2503 km, 38.9° (Epoch: 18 April)

Date Brightness Start Highest point End Pass type
(mag) Time Alt. Az. Time Alt. Az. Time Alt. Az.
20 Apr - 01:27:14 10° SSW 01:32:40 29° SE 01:36:54 10° E night (unlit)
20 Apr - 03:32:18 10° W 03:36:26 26° NW 03:40:09 10° NNE visible
20 Apr - 11:59:28 10° N 12:07:47 25° NE 12:18:11 10° E daylight
20 Apr - 14:01:33 10° NW 14:13:49 82° NE 14:29:08 10° SE daylight
20 Apr - 16:08:34 10° W 16:21:08 38° SW 16:34:24 10° SSE daylight
20 Apr - 18:27:01 10° SW 18:30:26 11° SSW 18:33:45 10° SSW visible
21 Apr - 00:54:53 10° SSW 01:00:24 25° SSE 01:04:39 10° E night (unlit)
21 Apr - 02:59:33 10° WSW 03:04:25 35° NW 03:08:30 10° NNE visible
21 Apr - 11:27:59 10° N 11:35:02 20° NE 11:43:42 10° E daylight
21 Apr - 13:29:14 10° NW 13:40:49 73° NE 13:55:53 10° SE daylight
21 Apr - 15:35:24 10° WNW 15:47:54 42° SW 16:01:46 10° SSE daylight
21 Apr - 17:50:54 10° SW 17:57:02 13° SSW 18:03:00 10° S daylight
22 Apr - 00:22:29 10° SSW 00:28:03 22° SSE 00:32:21 10° E night (unlit)
22 Apr - 02:26:49 10° WSW 02:32:25 47° NW 02:36:48 10° NNE night (unlit)
22 Apr - 10:56:51 10° N 11:02:20 16° NE 11:08:50 10° ENE daylight
22 Apr - 12:57:02 10° NW 13:07:54 65° NE 13:22:29 10° ESE daylight
22 Apr - 15:02:25 10° WNW 15:14:42 47° SW 15:29:01 10° SSE daylight
22 Apr - 17:15:53 10° WSW 17:23:38 16° SSW 17:31:19 10° S daylight
22 Apr - 23:50:02 10° SSW 23:55:37 20° SSE 23:59:58 10° ESE night (unlit)
23 Apr - 01:54:05 10° WSW 02:00:23 64° NW 02:05:03 10° NE night (unlit)
23 Apr - 10:26:34 10° NNE 10:29:41 12° NE 10:33:07 10° ENE daylight
23 Apr - 12:24:58 10° NNW 12:35:04 56° NE 12:48:59 10° ESE daylight
23 Apr - 14:29:37 10° WNW 14:41:32 53° SW 14:56:09 10° SSE daylight
23 Apr - 16:41:26 10° WSW 16:50:14 18° SSW 16:59:14 10° S daylight
23 Apr - 23:17:31 10° SSW 23:23:06 18° SSE 23:27:30 10° ESE night (unlit)
24 Apr - 01:21:19 10° SW 01:28:19 82° NW 01:33:14 10° NE night (unlit)
24 Apr - 11:53:01 10° NNW 12:02:20 48° NE 12:15:21 10° ESE daylight
24 Apr - 13:56:58 10° WNW 14:08:26 59° SW 14:23:11 10° SE daylight
24 Apr - 16:07:22 10° WSW 16:16:52 21° SSW 16:26:54 10° SSE daylight
24 Apr - 22:44:58 10° S 22:50:30 17° SSE 22:54:56 10° ESE night (unlit)
25 Apr - 00:48:33 10° SW 00:56:11 80° SE 01:01:22 10° NE night (unlit)
25 Apr - 11:21:12 10° NNW 11:29:42 40° NE 11:41:36 10° ESE daylight
25 Apr - 13:24:28 10° WNW 13:35:24 65° SW 13:50:07 10° SE daylight
25 Apr - 15:33:39 10° WSW 15:43:32 23° SSW 15:54:24 10° SSE daylight
25 Apr - 22:12:22 10° S 22:17:48 16° SSE 22:22:15 10° ESE night (unlit)
26 Apr - 00:15:44 10° SW 00:23:58 66° SE 00:29:27 10° ENE night (unlit)
26 Apr - 02:24:24 10° WNW 02:27:27 14° NW 02:30:09 10° NNW night (unlit)
26 Apr - 10:49:30 10° NNW 10:57:09 33° NE 11:07:43 10° ESE daylight
26 Apr - 12:52:06 10° NW 13:02:26 73° SW 13:16:57 10° SE daylight
26 Apr - 15:00:12 10° W 15:10:15 26° SSW 15:21:46 10° SSE daylight
26 Apr - 21:39:45 10° S 21:45:01 15° SSE 21:49:25 10° SE visible
26 Apr - 23:42:53 10° SW 23:51:40 56° SE 23:57:28 10° ENE night (unlit)
27 Apr - 01:50:44 10° W 01:55:22 20° NW 01:59:07 10° N night (unlit)
27 Apr - 10:17:58 10° N 10:24:40 26° NE 10:33:42 10° E daylight
27 Apr - 12:19:52 10° NW 12:29:35 82° SW 12:43:44 10° SE daylight
27 Apr - 14:27:00 10° W 14:37:01 29° SSW 14:49:00 10° SSE daylight
27 Apr - 21:07:06 10° S 21:12:07 14° SSE 21:16:25 10° SE visible
27 Apr - 23:10:00 10° SW 23:19:16 48° SE 23:25:25 10° ENE night (unlit)
28 Apr - 01:17:19 10° WSW 01:23:17 27° NW 01:27:48 10° NNE night (unlit)
28 Apr - 09:46:38 10° N 09:52:15 21° NE 09:59:30 10° E daylight
28 Apr - 11:47:44 10° NW 11:56:50 88° NE 12:10:26 10° SE daylight
28 Apr - 13:54:01 10° W 14:03:51 32° SSW 14:16:09 10° SSE daylight
28 Apr - 16:11:42 10° SSW 16:14:00 10° SSW 16:16:20 10° S daylight
28 Apr - 20:34:29 10° S 20:39:07 13° SSE 20:43:12 10° SE visible
28 Apr - 22:37:05 10° SSW 22:46:46 43° SE 22:53:17 10° ENE night (unlit)
29 Apr - 00:43:59 10° WSW 00:51:12 36° NW 00:56:19 10° NNE night (unlit)
29 Apr - 09:15:40 10° NNE 09:19:53 15° NE 09:24:59 10° ENE daylight
29 Apr - 11:15:42 10° NW 11:24:11 78° NE 11:37:04 10° SE daylight
29 Apr - 13:21:12 10° W 13:30:45 35° SW 13:43:13 10° SSE daylight
29 Apr - 15:36:06 10° SW 15:40:29 12° SSW 15:45:02 10° S daylight
29 Apr - 20:01:56 10° S 20:06:01 12° SSE 20:09:43 10° SE visible
29 Apr - 22:04:08 10° SSW 22:14:11 38° SE 22:21:04 10° E visible
